DW7447 Weather Reports


time (UTC)temp
F
wind
direction
speed
knots
gust
knots
rain 1hr
in
rain 24hr
in
rain mn
in
humidity
%
barometer
mb
20260504214644 50 268 2.6 6.1 0.00 0.03 0.02 86 1014.6
20260504214144 50 252 2.6 5.2 0.00 0.03 0.02 85 1014.7
20260504213643 51 247 1.7 5.2 0.00 0.03 0.02 85 1014.7
20260504212631 51 282 1.7 4.3 0.00 0.04 0.02 84 1014.7
20260504212127 51 254 1.7 5.2 0.00 0.04 0.02 83 1014.7
20260504211628 52 254 1.7 5.2 0.00 0.04 0.02 83 1014.7
20260504211127 52 255 1.7 5.2 0.00 0.04 0.02 82 1014.6
20260504210127 53 264 2.6 7.0 0.00 0.04 0.02 81 1014.6
20260504205627 53 238 2.6 7.0 0.00 0.04 0.02 80 1014.7
20260504205128 53 209 3.5 6.1 0.00 0.04 0.02 80 1014.7
20260504204129 54 250 2.6 6.1 0.00 0.05 0.02 79 1014.7
20260504203627 54 214 2.6 6.1 0.00 0.05 0.02 79 1014.6
20260504203128 54 228 3.5 7.0 0.00 0.05 0.02 79 1014.6
20260504202629 54 241 2.6 7.0 0.00 0.05 0.02 79 1014.6
20260504201628 55 333 5.2 7.8 0.00 0.05 0.02 79 1014.5
20260504201128 55 196 4.3 7.8 0.00 0.05 0.02 78 1014.4
20260504200627 55 179 3.5 9.6 0.00 0.06 0.02 78 1014.4
20260504200127 55 175 3.5 9.6 0.00 0.06 0.02 78 1014.2
20260504195633 55 197 4.3 7.8 0.00 0.06 0.02 78 1014.3
20260504194627 55 210 5.2 10.4 0.00 0.06 0.02 78 1014.3
20260504194129 55 165 5.2 10.4 0.00 0.06 0.02 78 1014.3
20260504193627 55 183 3.5 11.3 0.00 0.06 0.02 77 1014.3
20260504193127 55 202 3.5 11.3 0.00 0.06 0.02 77 1014.2
20260504192628 55 199 3.5 7.8 0.00 0.07 0.02 77 1014.2
20260504192128 56 169 4.3 10.4 0.00 0.07 0.02 77 1014.1
20260504191629 56 176 5.2 10.4 0.00 0.08 0.02 76 1014.1
20260504191129 56 185 5.2 10.4 0.00 0.09 0.02 76 1014.1
20260504190628 56 204 5.2 11.3 0.00 0.09 0.02 76 1014.1
20260504190127 56 185 6.1 11.3 0.00 0.09 0.02 76 1014.1
20260504185627 56 166 3.5 7.8 0.00 0.09 0.02 75 1014.1
20260504185127 56 171 3.5 7.8 0.00 0.09 0.02 75 1014.1
20260504184627 57 227 3.5 9.6 0.00 0.09 0.02 74 1014.0
20260504184127 57 188 3.5 10.4 0.00 0.10 0.02 74 1014.1
20260504183128 57 176 6.1 10.4 0.00 0.10 0.02 74 1014.0
20260504182626 58 192 3.5 9.6 0.00 0.10 0.02 75 1014.0
20260504182127 57 189 1.7 7.8 0.00 0.11 0.02 75 1013.9
20260504181627 57 148 1.7 10.4 0.00 0.11 0.02 74 1014.0
20260504181128 57 196 5.2 10.4 0.00 0.12 0.02 74 1013.9
20260504180628 58 224 3.5 7.0 0.00 0.12 0.02 74 1014.0
20260504180126 57 179 3.5 9.6 0.00 0.12 0.02 73 1014.0
20260504175627 58 212 3.5 9.6 0.00 0.13 0.02 73 1013.9
20260504174627 58 193 4.3 10.4 0.00 0.13 0.02 73 1014.0
20260504174127 58 230 6.1 10.4 0.00 0.13 0.02 73 1014.0
20260504173632 58 179 5.2 9.6 0.00 0.13 0.02 73 1014.1
20260504173127 58 209 3.5 9.6 0.00 0.14 0.02 72 1014.1
20260504172628 58 180 5.2 11.3 0.00 0.14 0.02 72 1014.2
20260504172127 58 204 6.1 11.3 0.00 0.15 0.02 72 1014.2
20260504171629 58 202 5.2 11.3 0.00 0.15 0.02 72 1014.2
20260504171128 58 199 4.3 10.4 0.00 0.16 0.02 71 1014.2
20260504170627 58 224 4.3 10.4 0.00 0.16 0.02 71 1014.2
20260504170128 59 193 5.2 10.4 0.00 0.16 0.02 71 1014.3
20260504160127 61 244 3.5 9.6 0.00 0.18 0.02 65 1014.3
20260504151126 61 203 2.6 9.6 0.00 0.20 0.02 67 1014.5
20260504150127 60 285 3.5 11.3 0.00 0.20 0.02 67 1014.6
20260504141127 60 230 5.2 9.6 0.00 0.23 0.02 67 1014.9
20260504140626 61 250 3.5 7.8 0.00 0.23 0.02 67 1014.9
20260504140127 61 314 4.3 10.4 0.00 0.24 0.02 68 1014.9
20260504130130 60 310 4.3 10.4 0.00 0.28 0.02 71 1015.1
20260504120126 59 266 4.3 7.8 0.00 0.35 0.02 72 1015.2
20260504110606 56 254 2.6 7.0 0.00 0.35 0.02 78 1015.6
20260504100527 54 278 1.7 6.1 0.00 0.37 0.02 83 1015.6
20260504081524 49 331 0.9 4.3 0.00 0.43 0.02 93 1015.8
20260504081030 48 331 1.7 4.3 0.00 0.44 0.02 94 1015.8
20260504080526 48 271 0.9 3.5 0.00 0.45 0.02 95 1015.7
20260504050539 45 210 0.0 2.6 0.00 0.61 0.02 99 1014.5
20260504045526 45 210 0.9 2.6 0.00 0.63 0.02 99 1014.5
20260504045020 45 210 0.0 3.5 0.00 0.65 0.02 99 1014.5
20260504044517 45 221 0.9 3.5 0.00 0.65 0.02 99 1014.5
20260504044016 45 351 0.0 2.6 0.00 0.66 0.02 99 1014.5
20260504043511 45 313 0.0 4.3 0.00 0.68 0.02 99 1014.6
20260504043005 45 38 1.7 4.3 0.00 0.69 0.02 99 1014.5
20260504042503 45 38 0.9 3.5 0.00 0.72 0.02 99 1014.6
20260504042003 45 38 0.9 3.5 0.00 0.74 0.02 99 1014.4
20260504041003 45 38 1.7 4.3 0.00 0.77 0.02 99 1014.4
20260504040505 45 38 0.9 4.3 0.00 0.80 0.02 99 1014.4
20260504040003 45 38 1.7 4.3 0.00 0.81 0.02 99 1014.4
20260504035504 45 38 0.9 3.5 0.00 0.84 0.02 99 1014.3
20260504035004 45 38 0.9 3.5 0.00 0.86 0.02 99 1014.5
20260504034505 45 38 0.9 3.5 0.00 0.87 0.02 99 1014.4
20260504034003 45 38 0.9 3.5 0.00 0.89 0.02 99 1014.5
20260504033512 45 38 1.7 3.5 0.00 0.91 0.02 99 1014.6
20260504032504 45 38 0.9 4.3 0.00 0.93 0.02 99 1014.6
20260504032002 45 38 1.7 4.3 0.00 0.94 0.02 99 1014.6
20260504031502 45 38 0.9 4.3 0.00 0.94 0.02 99 1014.6
20260504031004 45 38 1.7 4.3 0.00 0.94 0.02 99 1014.5
20260504030004 45 38 0.9 5.2 0.00 0.95 0.02 99 1014.4
20260504025504 45 38 0.9 5.2 0.00 0.96 0.02 99 1014.3
20260504025003 45 25 0.9 5.2 0.00 0.96 0.02 99 1014.4
20260504024004 45 8 2.6 6.1 0.00 0.96 0.02 99 1014.5
20260504023504 45 18 2.6 6.1 0.00 0.96 0.02 99 1014.5
20260504023004 45 30 1.7 5.2 0.00 0.96 0.02 99 1014.5
20260504022504 45 23 2.6 6.1 0.00 0.96 0.02 99 1014.5
20260504022005 45 10 2.6 6.1 0.01 0.96 0.02 99 1014.5
20260504021504 45 21 3.5 6.1 0.01 0.97 0.02 99 1014.4
20260504021004 45 23 1.7 5.2 0.01 0.97 0.02 99 1014.3
20260504020502 45 23 2.6 5.2 0.01 0.97 0.02 99 1014.2
20260504015502 45 17 2.6 5.2 0.01 0.98 0.02 99 1014.2
20260504015003 45 28 1.7 6.1 0.01 0.98 0.02 99 1014.2
20260504014504 45 55 2.6 6.1 0.01 0.98 0.02 99 1014.1
20260504014004 45 45 3.5 6.1 0.01 0.98 0.02 99 1014.1
20260504013503 45 47 1.7 6.1 0.01 0.98 0.02 99 1014.2
20260504013003 45 52 2.6 6.1 0.01 0.99 0.02 99 1014.1
20260504012504 45 52 2.6 6.1 0.01 1.00 0.01 99 1014.1
20260504012003 45 47 2.6 6.1 0.00 1.00 0.01 99 1014.1
20260504011502 45 54 1.7 5.2 0.00 1.02 0.01 99 1014.1
20260504011004 45 1 2.6 5.2 0.00 1.02 0.01 99 1014.1
20260504010004 45 27 1.7 6.1 0.00 1.02 0.01 99 1014.1
20260504005505 45 0 4.3 6.1 0.00 1.02 0.01 99 1014.1
20260504005006 45 30 0.9 5.2 0.00 1.02 0.01 99 1013.9
20260504004504 45 30 1.7 5.2 0.00 1.03 0.01 99 1014.0
20260504003504 45 27 1.7 5.2 0.00 1.03 0.01 99 1014.0
20260504003004 45 17 1.7 5.2 0.00 1.03 0.01 99 1014.0
20260504002504 45 7 1.7 6.1 0.00 1.03 0.01 99 1014.0
20260504002004 45 30 2.6 6.1 0.00 1.04 0.01 99 1013.9
20260504001502 45 32 2.6 5.2 0.00 1.04 0.01 99 1013.9
20260504001004 45 47 2.6 9.6 0.00 1.05 0.01 99 1013.8
20260504000454 45 10 3.5 9.6 0.00 1.05 0.01 99 1013.8
20260503235950 45 35 3.5 7.0 0.01 1.05 0.01 99 1013.8
20260503235449 45 0 4.3 7.8 0.01 1.06 0.01 99 1013.9
20260503234932 45 28 3.5 7.8 0.01 1.06 0.01 99 1013.9
20260503234430 45 14 3.5 7.0 0.01 1.06 0.01 99 1013.9
20260503233932 45 35 2.6 6.1 0.01 1.06 0.01 99 1013.9
20260503233426 45 59 3.5 6.1 0.01 1.06 0.01 99 1013.9
20260503232925 45 61 1.7 7.0 0.02 1.07 0.01 99 1014.0
20260503232425 45 39 4.3 9.6 0.02 1.07 0.01 99 1013.9
20260503231925 45 54 3.5 9.6 0.02 1.08 0.01 99 1014.0
20260503230925 45 56 3.5 7.0 0.02 1.08 0.01 99 1013.9
20260503230426 45 45 1.7 7.8 0.02 1.07 0.00 99 1013.9
20260503225423 45 32 3.5 7.8 0.02 1.07 1.07 99 1013.9
20260503224925 45 17 3.5 10.4 0.02 1.07 1.07 99 1013.9
20260503224424 45 24 6.1 10.4 0.02 1.07 1.07 99 1013.9
20260503223424 45 1 3.5 7.0 0.02 1.07 1.06 99 1014.0
20260503222925 45 25 3.5 7.0 0.02 1.06 1.06 99 1013.8
20260503222425 45 45 3.5 7.8 0.02 1.06 1.06 99 1013.9
20260503221925 46 11 3.5 7.8 0.02 1.06 1.06 99 1013.8
20260503221424 45 24 2.6 7.0 0.02 1.06 1.06 99 1013.7
20260503220926 45 47 2.6 7.8 0.02 1.06 1.06 99 1013.8
20260503220425 46 7 5.2 9.6 0.01 1.06 1.06 99 1013.7
20260503215925 45 13 5.2 9.6 0.01 1.06 1.06 99 1013.7
20260503215424 45 18 3.5 10.4 0.01 1.06 1.06 99 1013.7
20260503214925 45 51 6.1 11.3 0.01 1.06 1.06 99 1013.7